Location: Boley
(53.1150°N, 8.2269°W)
Time: 23:22:02
(UTC+00:00)

Cosmos 1092 Rocket - Pass Details

Date: 15 May 2026
Orbit: 953 x 994 km, 83.0° (Epoch: 6 June)

Event Time Altitude Azimuth Distance (km) Brightness Sun altitude
Rises 23:17:17 0° 347° (NNW) 3,649 8.8 -16.2°
Reaches altitude 10° 23:19:48 10° 344° (NNW) 2,702 7.7 -16.3°
Maximum altitude 23:25:51 60° 267° (W) 1,102 4.3 -16.5°
Enters shadow 23:29:59 21° 194° (SSW) 2,017 5.2 -16.7°
